Regional Weather Roundup
Issued by NWS Kansas City/Pleasant Hill, MO

Home | Current Version | Previous Version | Graphics & Text | Print | Product List | Glossary Off
Versions: 1 2 3 4 5 6 7 8 9 10 11 12 13 14 15 16 17 18 19 20 21 22 23 24 25 26 27

000
ASUS43 KEAX 311110
RWREAX

WEATHER ROUNDUP FOR EASTERN KANSAS AND NORTHWEST MISSOURI
NATIONAL WEATHER SERVICE KANSAS CITY/PLEASANT HILL MO
600 AM CDT WED AUG 31 2016

KSZ040-057-103>105-MOZ028-029-037-043-311200-
...KANSAS CITY METROPOLITAN AREA...

CITY           SKY/WX    TMP DP  RH WIND       PRES   REMARKS
K.C. INTL      LGT RAIN  69  67  93 N3        30.11F
K.C. DOWNTOWN  LGT RAIN  71  69  93 CALM      30.10S
LEES SUMMIT    CLOUDY    72  69  90 N7        30.11S
OLATHE - IXD   LGT RAIN  70  69  97 CALM      30.11S
OLATHE - OJC   LGT RAIN  70  69  97 N6        30.10F
LAWRENCE       CLOUDY    70  70 100 CALM      30.10S

$$

MOZ001>008-011>017-020>025-030>033-038>040-044>046-053-054-311200-
...NORTHERN AND CENTRAL MISSOURI...

CITY           SKY/WX    TMP DP  RH WIND       PRES   REMARKS
ST. JOSEPH     CLOUDY    72  70  93 N3        30.12R
MOSBY          TSTM      70  68  94 N6        30.10F
WHITEMAN AFB   MOCLDY    71  71 100 NW1       30.08F
CLINTON        LGT RAIN  72  72 100 CALM      30.09F
SEDALIA        CLOUDY    72  70  93 W3        30.11S FOG
WARSAW         NOT AVBL
CHILLICOTHE      N/A     73  71  93 CALM      30.11S
KIRKSVILLE     CLOUDY    71  69  93 N8        30.11R

$$

MOZ041-047>049-056>058-063>065-088>090-097-311200-
...EASTERN AND SOUTHERN MISSOURI...

CITY           SKY/WX    TMP DP  RH WIND       PRES   REMARKS
ST. LOUIS INTL CLOUDY    72  69  90 CALM      30.07R
SPIRIT OF STL  CLOUDY    70  70 100 W3        30.06S FOG
COLUMBIA       CLOUDY    70  69  97 NW3       30.09S
JEFFERSON CITY CLOUDY    71  70  96 CALM      30.08S FOG
ROLLA          FOG       68  68 100 CALM      30.08S VSB 1/2
OSAGE BEACH    RAIN      72  72 100 CALM      30.10S FOG
SPRINGFIELD    CLOUDY    72  68  87 N6        30.09S
BRANSON          N/A     68  68 100 CALM      30.10  FOG
JOPLIN         CLOUDY    72  70  93 CALM      30.08F
WEST PLAINS    CLEAR     69  65  86 CALM      30.10S

$$

IAZ060-094-KSZ022-034>040-054-083-096-NEZ052-066-093-311200-
...KANSAS...SOUTHEAST NEBRASKA AND IOWA...

CITY           SKY/WX    TMP DP  RH WIND       PRES   REMARKS
TOPEKA         CLOUDY    69  68  96 CALM      30.11R
MANHATTAN      LGT RAIN  71  69  93 NE6       30.11S
EMPORIA        MOCLDY    68  67  96 CALM      30.10F
CHANUTE        CLOUDY    71  69  93 NE6       30.09S
WICHITA        CLOUDY    71  68  90 NE5       30.11R
OMAHA          CLOUDY    68  64  87 NW6       30.17S
LINCOLN        CLOUDY    70  68  93 N6        30.17S
FALLS CITY     LGT RAIN  71  70  96 NE5       30.12S
LAMONI         CLOUDY    68  67  96 N6        30.14R
DES MOINES     MOCLDY    68  61  78 N8        30.14S

$$





USA.gov is the U.S. government's official web portal to all federal, state and local government web resources and services.